{"data":{"norad_id":43080,"epoch":"2026-05-25T05:04:47.303904Z","epoch_age_seconds":53377,"freshness":"FRESH","line1":"1 43080U 17084A   26145.21165861  .00004786  00000+0  18890-3 0  9996","line2":"2 43080  97.1210 186.0853 0001577  27.2650 332.8672 15.25985646468189","mean_motion":15.25985646,"eccentricity":0.0001577,"inclination_deg":97.121,"raan_deg":186.0853,"arg_perigee_deg":27.265,"mean_anomaly_deg":332.8672,"bstar":0.0001889,"rev_number":46818,"period_min":94.365238871978,"perigee_km":486.74455905968,"apogee_km":488.91008420672,"semimajor_km":6865.9643216332,"source":"CELESTRAK","updated_at":"2026-05-25T13:37:55.763011Z"}}